Location: Clatteringshaws Loch
(55.0508°N, 4.2860°W)
Time: 09:08:15
(UTC+00:00)

Amateur Radio Satellites - All Passes

Search period start: 31 October 2014 08:38
Search period end: 01 November 2014 08:38
Location: Clatteringshaws Loch, 55.0508°N, 4.2860°W

Satellite Date Start Highest point End Downlink Frequencies (MHz)
Time Altitude Azimuth
PCSat 31 Oct 08:43:24 08:48:27 36° 29° (NNE) 08:53:28 145.825 MHz
JAS-2 31 Oct 08:48:15 08:53:42 22° 319° (NW) 08:59:14 435.800 - 435.900 CW/SSB, 435.910 FM
AO-7 31 Oct 08:48:40 08:53:54 19° 337° (NNW) 08:59:09 29.400 - 29.500 MHz
UKube-1 31 Oct 08:58:14 09:00:58 16° 88° (E) 09:03:42 145.840 MHz, 145.915 MHz
KITSAT 1 31 Oct 09:13:19 09:18:03 17° 100° (E) 09:22:47 435.175 FM
Saudisat 1A 31 Oct 09:18:39 09:22:22 25° 350° (N) 09:26:05 436.775 MHz
Oscar 11 31 Oct 09:32:52 09:36:44 31° 95° (E) 09:40:34 145.825 FM, Beacon 2401.500 USB
FUNcube-1 31 Oct 09:48:50 09:52:06 21° 90° (E) 09:55:20 145.950 - 145.970 MHz USB
HO-68 31 Oct 09:51:09 09:58:25 83° 109° (ESE) 10:05:38 435.675 MHz FM
Sapphire 31 Oct 10:05:06 10:10:35 78° 46° (NE) 10:16:02 437.095 MHz 1200 baud AX-25 AFSK
ISS 31 Oct 10:06:28 10:07:43 12° 143° (SE) 10:08:58 145.800 FM
PCSat 31 Oct 10:26:54 10:32:21 77° 232° (SW) 10:37:46 145.825 MHz
UKube-1 31 Oct 10:33:21 10:37:45 82° 288° (WNW) 10:42:07 145.840 MHz, 145.915 MHz
AO-7 31 Oct 10:39:41 10:43:40 15° 4° (N) 10:47:40 29.400 - 29.500 MHz
ZACube-1 31 Oct 10:41:36 10:45:50 62° 102° (ESE) 10:49:57 437.345 MHz
Oscar 16 31 Oct 10:53:42 10:57:09 18° 50° (NE) 11:00:36 437.025 USB, Beacon 2401.1428
Saudisat 1A 31 Oct 10:59:17 11:03:06 27° 14° (NNE) 11:06:55 436.775 MHz
KITSAT 1 31 Oct 11:03:58 11:11:51 60° 123° (ESE) 11:19:45 435.175 FM
Oscar 11 31 Oct 11:08:58 11:13:01 40° 295° (WNW) 11:17:03 145.825 FM, Beacon 2401.500 USB
JAS-1B 31 Oct 11:11:36 11:16:09 26° 50° (NE) 11:20:56 435.800 - 435.900 CW/SSB
SO-50 31 Oct 11:22:57 11:27:17 45° 126° (SE) 11:31:46 436.795 FM
FUNcube-1 31 Oct 11:24:41 11:28:52 56° 291° (WNW) 11:32:56 145.950 - 145.970 MHz USB
Uribyol 2 31 Oct 11:26:11 11:29:31 17° 48° (NE) 11:32:51 436.500 FM
AO-Echo 31 Oct 11:31:17 11:34:56 20° 51° (NE) 11:38:38 ?
ITAMSAT 1 31 Oct 11:33:49 11:37:20 19° 49° (NE) 11:40:50 435.822 SSB
HO-68 31 Oct 11:39:22 11:45:33 32° 311° (NW) 11:51:42 435.675 MHz FM
ISS 31 Oct 11:40:40 11:43:41 32° 162° (SSE) 11:46:43 145.800 FM
Oscar 19 31 Oct 11:44:15 11:48:54 36° 61° (ENE) 11:53:35 437.125 CW, 437.150 USB
Sapphire 31 Oct 11:49:05 11:53:33 26° 248° (WSW) 11:58:00 437.095 MHz 1200 baud AX-25 AFSK
UOSAT-12 31 Oct 12:09:57 12:13:15 19° 115° (ESE) 12:16:36 437.025 FM, 437.400 FM
UKube-1 31 Oct 12:10:38 12:13:19 16° 308° (NW) 12:16:00 145.840 MHz, 145.915 MHz
PCSat 31 Oct 12:11:25 12:14:58 18° 253° (WSW) 12:18:31 145.825 MHz
ZACube-1 31 Oct 12:18:38 12:21:53 22° 302° (WNW) 12:25:06 437.345 MHz
AO-27 31 Oct 12:19:44 12:24:25 35° 59° (ENE) 12:29:08 436.795 MHz FM
AO-7 31 Oct 12:27:37 12:33:39 23° 32° (NNE) 12:39:41 29.400 - 29.500 MHz
Oscar 16 31 Oct 12:30:39 12:35:47 77° 71° (ENE) 12:40:57 437.025 USB, Beacon 2401.1428
Gurwin Techsat 1B 31 Oct 12:33:49 12:38:15 28° 56° (NE) 12:42:42 435.225 FM
Saudisat 1A 31 Oct 12:38:59 12:43:24 63° 37° (NE) 12:47:49 436.775 MHz
TMSAT-1 31 Oct 12:40:38 12:44:53 25° 54° (NE) 12:49:09 436.925 FM
Oscar 10/S400 31 Oct 12:52:41 13:05:03 20° 147° (SSE) 13:21:09 145.825 - 145.975 CW/USB, Beacon 145.810 USB
KITSAT 1 31 Oct 12:59:28 13:07:26 59° 327° (NNW) 13:15:26 435.175 FM
JAS-1B 31 Oct 13:00:39 13:06:20 77° 255° (WSW) 13:12:16 435.800 - 435.900 CW/SSB
Uribyol 2 31 Oct 13:02:59 13:08:11 69° 69° (ENE) 13:13:24 436.500 FM
FUNcube-1 31 Oct 13:03:06 13:04:22 11° 312° (NW) 13:05:38 145.950 - 145.970 MHz USB
SO-50 31 Oct 13:03:24 13:07:53 49° 329° (NNW) 13:12:31 436.795 FM
AO-Echo 31 Oct 13:07:56 13:13:00 84° 73° (ENE) 13:18:16 ?
ITAMSAT 1 31 Oct 13:10:51 13:16:04 75° 70° (ENE) 13:21:20 435.822 SSB
ISS 31 Oct 13:16:49 13:20:03 47° 182° (S) 13:23:16 145.800 FM
Oscar 19 31 Oct 13:23:15 13:28:12 46° 261° (W) 13:33:09 437.125 CW, 437.150 USB
Uosat F 31 Oct 13:24:13 13:26:30 13° 44° (NE) 13:28:47 435.120 FM
HO-68 31 Oct 13:28:05 13:31:13 13° 336° (NNW) 13:34:21 435.675 MHz FM
UOSAT-12 31 Oct 13:48:06 13:52:48 85° 136° (SE) 13:57:35 437.025 FM, 437.400 FM
JAS-2 31 Oct 13:55:49 13:59:54 17° 34° (NE) 14:04:11 435.800 - 435.900 CW/SSB, 435.910 FM
AO-27 31 Oct 13:58:43 14:03:48 51° 260° (W) 14:08:56 436.795 MHz FM
Oscar 16 31 Oct 14:11:52 14:15:44 21° 271° (W) 14:19:38 437.025 USB, Beacon 2401.1428
Gurwin Techsat 1B 31 Oct 14:12:34 14:17:52 68° 257° (WSW) 14:23:12 435.225 FM
AO-7 31 Oct 14:16:54 14:24:53 56° 56° (NE) 14:32:55 29.400 - 29.500 MHz
Saudisat 1A 31 Oct 14:18:53 14:22:45 30° 238° (WSW) 14:26:37 436.775 MHz
TMSAT-1 31 Oct 14:19:02 14:24:21 77° 255° (WSW) 14:29:42 436.925 FM
Uribyol 2 31 Oct 14:43:57 14:48:10 24° 269° (W) 14:52:24 436.500 FM
SO-50 31 Oct 14:45:23 14:49:24 27° 352° (N) 14:53:30 436.795 FM
AO-Echo 31 Oct 14:48:51 14:52:29 19° 273° (W) 14:56:12 ?
ITAMSAT 1 31 Oct 14:52:05 14:56:08 22° 270° (W) 15:00:13 435.822 SSB
ISS 31 Oct 14:53:26 14:56:22 29° 201° (SSW) 14:59:18 145.800 FM
JAS-1B 31 Oct 14:55:14 14:58:20 15° 278° (W) 15:01:29 435.800 - 435.900 CW/SSB
KITSAT 1 31 Oct 14:56:57 15:04:26 39° 355° (N) 15:11:55 435.175 FM
Uosat F 31 Oct 14:59:24 15:04:15 51° 65° (ENE) 15:09:10 435.120 FM
UOSAT-12 31 Oct 15:29:05 15:33:26 35° 338° (NNW) 15:37:49 437.025 FM, 437.400 FM
JAS-2 31 Oct 15:36:53 15:43:09 44° 58° (ENE) 15:50:06 435.800 - 435.900 CW/SSB, 435.910 FM
Gurwin Techsat 1B 31 Oct 15:56:18 15:58:53 14° 277° (W) 16:01:28 435.225 FM
TMSAT-1 31 Oct 16:02:07 16:05:12 15° 276° (W) 16:08:18 436.925 FM
AO-7 31 Oct 16:09:52 16:17:52 51° 259° (W) 16:25:55 29.400 - 29.500 MHz
Hamsat 31 Oct 16:17:49 16:21:41 38° 66° (ENE) 16:25:34 145.90 MHz
SO-50 31 Oct 16:26:55 16:31:10 31° 17° (NNE) 16:35:29 436.795 FM
Uosat F 31 Oct 16:38:48 16:43:17 32° 265° (W) 16:47:48 435.120 FM
KITSAT 1 31 Oct 16:53:53 17:01:41 48° 24° (NNE) 17:09:28 435.175 FM
HO-68 31 Oct 16:57:01 17:00:48 15° 29° (NNE) 17:04:36 435.675 MHz FM
OPAL 31 Oct 16:59:38 17:03:43 25° 94° (E) 17:07:46 ?
UOSAT-12 31 Oct 17:10:44 17:14:44 26° 2° (N) 17:18:45 437.025 FM, 437.400 FM
SO-67 31 Oct 17:13:57 17:16:30 20° 61° (ENE) 17:19:03 435.3500 MHz FM
JAS-2 31 Oct 17:21:38 17:28:04 56° 262° (W) 17:35:20 435.800 - 435.900 CW/SSB, 435.910 FM
Hamsat 31 Oct 17:53:59 17:57:43 31° 265° (W) 18:01:29 145.90 MHz
SO-50 31 Oct 18:07:36 18:12:25 73° 39° (NE) 18:17:18 436.795 FM
AO-7 31 Oct 18:09:31 18:12:54 13° 283° (WNW) 18:16:18 29.400 - 29.500 MHz
AO-40 31 Oct 18:20:23 23:43:15 30° 182° (S) 04:06:41 Beacon 2401.320
OPAL 31 Oct 18:38:07 18:43:02 64° 295° (WNW) 18:47:55 ?
HO-68 31 Oct 18:40:13 18:46:43 39° 53° (NE) 18:53:14 435.675 MHz FM
SO-67 31 Oct 18:45:54 18:49:13 46° 261° (W) 18:52:35 435.3500 MHz FM
KITSAT 1 31 Oct 18:49:41 18:57:49 82° 230° (SW) 19:05:53 435.175 FM
UOSAT-12 31 Oct 18:51:28 18:55:58 40° 26° (NNE) 19:00:26 437.025 FM, 437.400 FM
STRAND 1 31 Oct 18:55:23 19:00:21 44° 98° (E) 19:05:15 ?
Oscar 11 31 Oct 19:01:44 19:03:25 12° 49° (NE) 19:05:06 145.825 FM, Beacon 2401.500 USB
JAS-2 31 Oct 19:11:44 19:15:01 14° 286° (WNW) 19:18:29 435.800 - 435.900 CW/SSB, 435.910 FM
RS-15 31 Oct 19:31:54 19:40:07 26° 102° (ESE) 19:48:19 29.354 - 29.394 USB, Beacon 29.352 USB
SO-50 31 Oct 19:48:34 19:52:40 28° 240° (WSW) 19:56:49 436.795 FM
UKube-1 31 Oct 19:59:57 20:03:55 35° 62° (ENE) 20:07:53 145.840 MHz, 145.915 MHz
ZACube-1 31 Oct 20:09:45 20:13:09 22° 58° (ENE) 20:16:29 437.345 MHz
OPAL 31 Oct 20:18:08 20:21:06 16° 316° (NW) 20:24:03 ?
HO-68 31 Oct 20:26:59 20:34:07 68° 255° (WSW) 20:41:20 435.675 MHz FM
UOSAT-12 31 Oct 20:31:42 20:36:25 66° 228° (SW) 20:41:04 437.025 FM, 437.400 FM
Oscar 11 31 Oct 20:34:32 20:38:47 59° 70° (ENE) 20:43:03 145.825 FM, Beacon 2401.500 USB
STRAND 1 31 Oct 20:34:46 20:39:31 38° 299° (WNW) 20:44:15 ?
KITSAT 1 31 Oct 20:45:48 20:52:12 27° 253° (WSW) 20:58:36 435.175 FM
FUNcube-1 31 Oct 20:51:31 20:55:46 43° 66° (ENE) 20:59:56 145.950 - 145.970 MHz USB
MaSat-1 31 Oct 21:13:55 21:16:10 16° 111° (ESE) 21:18:18 437.345 MHz
UKube-1 31 Oct 21:36:01 21:40:05 38° 262° (W) 21:44:12 145.840 MHz, 145.915 MHz
RS-15 31 Oct 21:39:43 21:50:34 74° 128° (SE) 22:01:31 29.354 - 29.394 USB, Beacon 29.352 USB
ZACube-1 31 Oct 21:44:41 21:49:11 69° 257° (WSW) 21:53:35 437.345 MHz
Oscar 11 31 Oct 22:12:01 22:15:20 21° 269° (W) 22:18:41 145.825 FM, Beacon 2401.500 USB
UOSAT-12 31 Oct 22:13:16 22:15:45 14° 249° (WSW) 22:18:12 437.025 FM, 437.400 FM
STRAND 1 31 Oct 22:16:28 22:17:26 11° 320° (NW) 22:18:24 ?
HO-68 31 Oct 22:18:46 22:23:16 17° 277° (W) 22:27:47 435.675 MHz FM
FUNcube-1 31 Oct 22:28:18 22:32:17 30° 265° (W) 22:36:12 145.950 - 145.970 MHz USB
MaSat-1 31 Oct 22:47:38 22:51:16 70° 308° (NW) 22:54:30 437.345 MHz
ZACube-1 31 Oct 23:25:00 23:26:24 11° 277° (W) 23:27:47 437.345 MHz
RS-15 31 Oct 23:52:44 00:03:31 60° 338° (NNW) 00:14:32 29.354 - 29.394 USB, Beacon 29.352 USB
MaSat-1 01 Nov 00:25:10 00:27:08 15° 327° (NNW) 00:29:00 437.345 MHz
JAS-1B 01 Nov 00:35:15 00:40:35 23° 88° (E) 00:46:35 435.800 - 435.900 CW/SSB
Oscar 16 01 Nov 00:36:06 00:39:16 16° 86° (E) 00:42:24 437.025 USB, Beacon 2401.1428
Sapphire 01 Nov 00:56:50 00:59:38 14° 104° (ESE) 01:02:26 437.095 MHz 1200 baud AX-25 AFSK
AO-Echo 01 Nov 01:08:40 01:12:19 18° 86° (E) 01:15:56 ?
Uribyol 2 01 Nov 01:09:48 01:12:37 15° 84° (E) 01:15:24 436.500 FM
PCSat 01 Nov 01:16:55 01:20:56 22° 109° (ESE) 01:24:58 145.825 MHz
ITAMSAT 1 01 Nov 01:17:35 01:20:45 16° 85° (E) 01:23:53 435.822 SSB
Oscar 19 01 Nov 01:27:16 01:32:02 37° 96° (E) 01:36:46 437.125 CW, 437.150 USB
AO-27 01 Nov 02:04:21 02:09:09 35° 95° (E) 02:13:54 436.795 MHz FM
RS-15 01 Nov 02:07:18 02:18:01 53° 10° (N) 02:29:01 29.354 - 29.394 USB, Beacon 29.352 USB
Oscar 16 01 Nov 02:14:16 02:19:27 83° 106° (ESE) 02:24:35 437.025 USB, Beacon 2401.1428
Gurwin Techsat 1B 01 Nov 02:21:38 02:26:17 29° 93° (E) 02:30:53 435.225 FM
JAS-1B 01 Nov 02:25:16 02:32:02 84° 107° (ESE) 02:40:10 435.800 - 435.900 CW/SSB
TMSAT-1 01 Nov 02:27:54 02:32:19 26° 91° (E) 02:36:43 436.925 FM
Sapphire 01 Nov 02:36:43 02:42:04 64° 125° (SE) 02:47:28 437.095 MHz 1200 baud AX-25 AFSK
OPAL 01 Nov 02:44:10 02:48:03 23° 50° (NE) 02:51:55 ?
AO-Echo 01 Nov 02:46:28 02:51:51 88° 106° (ESE) 02:57:10 ?
Uribyol 2 01 Nov 02:47:47 02:53:02 74° 105° (ESE) 02:58:13 436.500 FM
ITAMSAT 1 01 Nov 02:55:50 03:01:07 80° 106° (ESE) 03:06:20 435.822 SSB
PCSat 01 Nov 02:58:16 03:03:42 88° 130° (SE) 03:09:11 145.825 MHz
Oscar 19 01 Nov 03:06:38 03:11:29 44° 297° (WNW) 03:16:19 437.125 CW, 437.150 USB
AO-27 01 Nov 03:43:48 03:48:51 48° 296° (WNW) 03:53:51 436.795 MHz FM
Oscar 16 01 Nov 03:54:22 03:58:17 23° 307° (NW) 04:02:11 437.025 USB, Beacon 2401.1428
Gurwin Techsat 1B 01 Nov 04:01:22 04:06:36 58° 293° (WNW) 04:11:48 435.225 FM
AO-7 01 Nov 04:02:39 04:10:22 39° 96° (E) 04:18:02 29.400 - 29.500 MHz
TMSAT-1 01 Nov 04:07:25 04:12:42 65° 291° (WNW) 04:17:57 436.925 FM
JAS-1B 01 Nov 04:16:39 04:22:14 30° 307° (NW) 04:28:38 435.800 - 435.900 CW/SSB
RS-15 01 Nov 04:20:41 04:31:48 84° 41° (NE) 04:43:21 29.354 - 29.394 USB, Beacon 29.352 USB
Sapphire 01 Nov 04:20:42 04:25:49 41° 328° (NNW) 04:30:59 437.095 MHz 1200 baud AX-25 AFSK
OPAL 01 Nov 04:21:21 04:26:27 85° 251° (WSW) 04:31:31 ?
JAS-2 01 Nov 04:22:59 04:29:10 25° 84° (E) 04:35:17 435.800 - 435.900 CW/SSB, 435.910 FM
AO-Echo 01 Nov 04:25:58 04:30:01 23° 307° (NW) 04:34:04 ?
Uribyol 2 01 Nov 04:27:52 04:32:05 25° 305° (NW) 04:36:16 436.500 FM
Saudisat 1A 01 Nov 04:33:49 04:35:37 12° 111° (ESE) 04:37:25 436.775 MHz
ITAMSAT 1 01 Nov 04:36:01 04:40:07 24° 307° (NW) 04:44:12 435.822 SSB
Uosat F 01 Nov 04:38:20 04:43:16 48° 100° (E) 04:48:08 435.120 FM
STRAND 1 01 Nov 04:40:35 04:44:52 27° 56° (NE) 04:49:10 ?
PCSat 01 Nov 04:42:50 04:47:45 33° 334° (NNW) 04:52:42 145.825 MHz
Oscar 19 01 Nov 04:47:58 04:49:40 12° 318° (NW) 04:51:23 437.125 CW, 437.150 USB
MaSat-1 01 Nov 05:15:06 05:17:18 21° 39° (NE) 05:19:21 437.345 MHz
AO-27 01 Nov 05:24:56 05:27:15 13° 317° (NW) 05:29:34 436.795 MHz FM
Hamsat 01 Nov 05:31:53 05:35:35 29° 94° (E) 05:39:16 145.90 MHz
Gurwin Techsat 1B 01 Nov 05:42:38 05:45:36 15° 314° (NW) 05:48:33 435.225 FM
TMSAT-1 01 Nov 05:48:29 05:51:45 17° 313° (NW) 05:55:01 436.925 FM
AO-7 01 Nov 05:55:28 06:03:43 69° 299° (WNW) 06:11:58 29.400 - 29.500 MHz
OPAL 01 Nov 06:02:54 06:06:06 17° 271° (W) 06:09:16 ?
Sapphire 01 Nov 06:06:15 06:10:37 24° 353° (N) 06:15:00 437.095 MHz 1200 baud AX-25 AFSK
JAS-2 01 Nov 06:07:24 06:15:18 82° 105° (ESE) 06:23:05 435.800 - 435.900 CW/SSB, 435.910 FM
Saudisat 1A 01 Nov 06:10:01 06:14:21 62° 131° (SE) 06:18:44 436.775 MHz
JAS-1B 01 Nov 06:10:04 06:10:59 10° 331° (NNW) 06:11:55 435.800 - 435.900 CW/SSB
Uosat F 01 Nov 06:17:23 06:21:57 35° 300° (WNW) 06:26:29 435.120 FM
STRAND 1 01 Nov 06:18:35 06:23:43 67° 257° (WSW) 06:28:54 ?
PCSat 01 Nov 06:28:23 06:32:42 23° 359° (N) 06:37:01 145.825 MHz
RS-15 01 Nov 06:33:20 06:43:24 42° 247° (WSW) 06:53:50 29.354 - 29.394 USB, Beacon 29.352 USB
MaSat-1 01 Nov 06:50:23 06:52:44 29° 243° (WSW) 06:54:55 437.345 MHz
Hamsat 01 Nov 07:07:41 07:11:40 42° 293° (WNW) 07:15:40 145.90 MHz
SO-67 01 Nov 07:34:42 07:38:11 75° 103° (ESE) 07:41:38 435.3500 MHz FM
HO-68 01 Nov 07:47:43 07:52:22 18° 83° (E) 07:57:00 435.675 MHz FM
AO-7 01 Nov 07:48:44 07:55:18 27° 323° (NW) 08:01:53 29.400 - 29.500 MHz
Saudisat 1A 01 Nov 07:50:01 07:54:10 39° 333° (NNW) 07:58:21 436.775 MHz
Sapphire 01 Nov 07:51:00 07:55:41 28° 19° (NNE) 08:00:21 437.095 MHz 1200 baud AX-25 AFSK
JAS-2 01 Nov 07:52:53 07:59:42 35° 307° (NW) 08:06:33 435.800 - 435.900 CW/SSB, 435.910 FM
STRAND 1 01 Nov 08:01:39 08:03:56 13° 277° (W) 08:06:14 ?
PCSat 01 Nov 08:12:46 08:17:40 32° 25° (NNE) 08:22:32 145.825 MHz
